Regional Weather Roundup
Issued by NWS

Home | Current Version | Previous Version | Graphics & Text | Print | Product List | Glossary Off
Versions: 1 2 3 4 5 6 7 8 9 10 11 12 13 14 15 16 17 18 19 20 21 22 23 24 25 26 27 28 29 30 31 32 33 34 35 36 37 38 39 40 41 42 43 44 45 46 47 48 49 50

000
ASUS43 KMKX 310020
RWRWI

WISCONSIN REGIONAL WEATHER ROUNDUP
NATIONAL WEATHER SERVICE MILWAUKEE/SULLIVAN WI
600 PM CST FRI JAN 30 2015

NOTE: "FAIR" INDICATES FEW OR NO CLOUDS BELOW 12,000 FEET WITH NO
SIGNIFICANT WEATHER AND/OR OBSTRUCTIONS TO VISIBILITY.

WIZ001-002-006>008-014>016-023>028-310100-
NORTHWEST WISCONSIN

CITY           SKY/WX    TMP DP  RH WIND       PRES   REMARKS
SUPERIOR ARPT  CLOUDY    17   6  62 S5        30.26F WCI   9
6HR MIN TEMP:  14; 6HR MAX TEMP:  19;

ASHLAND        CLOUDY    19   4  51 S7        30.27F WCI  10
6HR MIN TEMP:  14; 6HR MAX TEMP:  19; 6HR PCP: TRACE;

HAYWARD        CLOUDY    15   3  59 S7        30.25F WCI   5
6HR MIN TEMP:  10; 6HR MAX TEMP:  16;

SIREN          CLOUDY    19   9  63 SE7       30.25F WCI  10
6HR MIN TEMP:  13; 6HR MAX TEMP:  20;

CUMBERLAND     MOCLDY    14   5  67 SE9       30.24F WCI   2
RICE LAKE      CLOUDY    16   7  67 SE9       30.29F WCI   4
6HR MIN TEMP:  11; 6HR MAX TEMP:  19;

CHETEK         PTCLDY    14   6  68 E5        30.29F WCI   7
6HR MIN TEMP:  12; 6HR MAX TEMP:  18;

LADYSMITH      MOCLDY    16   7  67 S3        30.31S
6HR MIN TEMP:  14; 6HR MAX TEMP:  17;

EAU CLAIRE     PTCLDY    16   4  59 SE6       30.31F WCI   7
6HR MIN TEMP:  13; 6HR MAX TEMP:  19;

MENOMONIE      PTCLDY    15   7  70 SE5       30.31F WCI   8
6HR MIN TEMP:  15; 6HR MAX TEMP:  21;

NEW RICHMOND   PTCLDY    18  11  75 SE6       30.27F WCI  10
6HR MIN TEMP:  15; 6HR MAX TEMP:  23;

OSCEOLA        MOCLDY    20  13  73 SE8       30.28F WCI  10
6HR MIN TEMP:  15; 6HR MAX TEMP:  24;

$$

WIZ003>005-009-010-017-018-310100-
NORTH CENTRAL WISCONSIN

CITY           SKY/WX    TMP DP  RH WIND       PRES   REMARKS
MANITOWISH WTR MOCLDY    13   5  69 S3        30.22F
6HR MIN TEMP:  13; 6HR MAX TEMP:  16;

ARBOR VITAE    PTCLDY    17   5  60 CALM      30.23F
6HR MIN TEMP:  17; 6HR MAX TEMP:  19;

WOODRUFF       PTCLDY    17   5  60 CALM      30.23F
6HR MIN TEMP:  17; 6HR MAX TEMP:  19;

RHINELANDER    CLEAR     16   3  56 S8        30.26F WCI   5
6HR MIN TEMP:  13; 6HR MAX TEMP:  18;

EAGLE RIVER    CLEAR     14   4  62 CALM      30.24F
6HR MIN TEMP:  13; 6HR MAX TEMP:  17;

LAND O LAKES   MOCLDY    15   7  72 CALM      30.24F
6HR MIN TEMP:  14; 6HR MAX TEMP:  18;

PHILLIPS       CLOUDY    15   4  61 SW7       30.25F WCI   5
6HR MIN TEMP:  13; 6HR MAX TEMP:  17;

TOMAHAWK       CLOUDY    15   4  64 CALM      30.28F
6HR MIN TEMP:  15; 6HR MAX TEMP:  20;

MEDFORD        MOCLDY    14   6  70 SE5       30.28F WCI   6
6HR MIN TEMP:  13; 6HR MAX TEMP:  15;

MERRILL        CLOUDY    15   6  67 SW5       30.30F WCI   8
6HR MIN TEMP:  15; 6HR MAX TEMP:  18;

$$

WIZ029-030-035-036-043>047-310100-
CENTRAL WISCONSIN

CITY           SKY/WX    TMP DP  RH WIND       PRES   REMARKS
WAUSAU         CLOUDY    16   5  62 SW3       30.30F
6HR MIN TEMP:  14; 6HR MAX TEMP:  18;

MOSINEE        NOT AVBL
MARSHFIELD     CLEAR     16   5  62 CALM      30.31F
6HR MIN TEMP:  14; 6HR MAX TEMP:  20;

STEVENS POINT  CLOUDY    16   6  64 S5        30.34F WCI   9
6HR MIN TEMP:  15; 6HR MAX TEMP:  19;

WAUPACA        PTCLDY    22   9  56 CALM      30.36F
6HR MIN TEMP:  22; 6HR MAX TEMP:  26;

WAUTOMA        MOCLDY    21   6  52 S5        30.37F WCI  15
6HR MIN TEMP:  20; 6HR MAX TEMP:  24;

WISC RAPIDS    PTCLDY    19   4  51 S6        30.35F WCI  11
6HR MIN TEMP:  17; 6HR MAX TEMP:  21;

CAMP DOUGLAS   CLEAR     14   9  80 E1        30.35F
6HR MIN TEMP:  14; 6HR MAX TEMP:  24;

$$

WIZ011>013-019>022-031-037>040-048>050-310100-
NORTHEAST WISCONSIN

CITY           SKY/WX    TMP DP  RH WIND       PRES   REMARKS
ANTIGO         MOCLDY    15   6  67 SW7       30.29F WCI   5
6HR MIN TEMP:  13; 6HR MAX TEMP:  16;

SHAWANO        CLOUDY    22   7  51 SW3       30.36F
6HR MIN TEMP:  19; 6HR MAX TEMP:  23;

OCONTO         CLOUDY    19   7  58 CALM      30.37F
6HR MIN TEMP:  17; 6HR MAX TEMP:  20;

STURGEON BAY   CLOUDY    18   7  62 S5        30.38F WCI  11
6HR MIN TEMP:  14; 6HR MAX TEMP:  18;

GREEN BAY      CLOUDY    20  11  68 S6        30.38F WCI  12
6HR MIN TEMP:  19; 6HR MAX TEMP:  21;

MANITOWOC      CLOUDY    19  12  74 CALM      30.40F
6HR MIN TEMP:  19; 6HR MAX TEMP:  28;

APPLETON       MOCLDY    18   9  68 VRB5      30.37F WCI  11
CLINTONVILLE   CLOUDY    21   9  58 SW3       30.35F
OSHKOSH        PTCLDY    21  10  62 CALM      30.38F
6HR MIN TEMP:  19; 6HR MAX TEMP:  23;

$$

WIZ032>034-041-042-053>061-310100-
SOUTHWEST WISCONSIN

CITY           SKY/WX    TMP DP  RH WIND       PRES   REMARKS
LA CROSSE      CLEAR     23   8  52 S6        30.36F WCI  16
6HR MIN TEMP:  19; 6HR MAX TEMP:  27;

SPARTA         CLEAR     17   8  67 CALM      30.36F
6HR MIN TEMP:  17; 6HR MAX TEMP:  24;

VIROQUA        CLEAR     19   9  63 S3        30.33F
6HR MIN TEMP:  18; 6HR MAX TEMP:  25;

BOSCOBEL       CLEAR     23   8  52 SW3       30.39F
6HR MIN TEMP:  21; 6HR MAX TEMP:  28;

PRAIRIE DU CHI CLEAR     25   8  47 CALM      30.38F
6HR MIN TEMP:  21; 6HR MAX TEMP:  27;

PLATTEVILLE    CLEAR     22  13  69 SE3       30.37F
6HR MIN TEMP:  20; 6HR MAX TEMP:  26;

$$

WIZ056-057-062-063-064-067-068-310100-
SOUTH CENTRAL WISCONSIN

CITY           SKY/WX    TMP DP  RH WIND       PRES   REMARKS
REEDSBURG      PTCLDY    21   8  57 CALM      30.36F
6HR MIN TEMP:  19; 6HR MAX TEMP:  24;

BARABOO/DELLS  MOCLDY    21   8  56 CALM      30.36F
6HR MIN TEMP:  19; 6HR MAX TEMP:  24;

LONE ROCK      PTCLDY    22  10  60 SW7       30.39S WCI  13
6HR MIN TEMP:  20; 6HR MAX TEMP:  27;

MINERAL POINT  CLEAR     23  10  58 S5        30.36S WCI  17
MADISON        MOCLDY    23   7  50 SW3       30.38F
6HR MIN TEMP:  21; 6HR MAX TEMP:  25;

MIDDLETON      CLOUDY    24   9  51 SW3       30.38S
6HR MIN TEMP:  23; 6HR MAX TEMP:  28;

WATERTOWN      CLEAR     22  11  64 S3        30.38F
6HR MIN TEMP:  21; 6HR MAX TEMP:  25;

MONROE         MOCLDY    23  14  68 SW5       30.38R WCI  17
JANESVILLE     CLEAR     25  12  58 SW6       30.40S WCI  18
$$

WIZ051-052-058>065-066-070>072-310100-
SOUTHEAST WISCONSIN

CITY           SKY/WX    TMP DP  RH WIND       PRES   REMARKS
MILWAUKEE      MOCLDY    24   7  48 SW7       30.40F WCI  16
6HR MIN TEMP:  24; 6HR MAX TEMP:  28;

WAUKESHA       CLEAR     19   9  63 W5        30.40S WCI  13
MILWAUKEE/TIMM CLEAR     21   7  53 SW6       30.41F WCI  14
RACINE         CLEAR     24   8  50 SW3       30.42F
6HR MIN TEMP:  23; 6HR MAX TEMP:  28;

BURLINGTON     CLEAR     19   9  64 CALM      30.40F
6HR MIN TEMP:  18; 6HR MAX TEMP:  24;

KENOSHA        CLEAR     21  11  65 W6        30.40F WCI  13
6HR MIN TEMP:  19; 6HR MAX TEMP:  28;

FOND DU LAC    PTCLDY    21  11  65 S5        30.38S WCI  15
6HR MIN TEMP:  19; 6HR MAX TEMP:  23; 6HR PCP: TRACE;

SHEBOYGAN      PTCLDY    20   9  62 W5        30.39S WCI  13
6HR MIN TEMP:  20; 6HR MAX TEMP:  25;

WEST BEND      PTCLDY    21   9  58 CALM      30.39R
JUNEAU         PTCLDY    21  12  68 CALM      30.39F
6HR MIN TEMP:  20; 6HR MAX TEMP:  23;

$$

LSZ147-162-310100-
LAKE SUPERIOR

STATION/POSITION TIME  TEMP    WIND        PRES    WAVE
                       AIR SEA DIR/SP/G            HT/PER
                 (UTC) (F)     (DEG/KT/KT) (MB)    (FT/S)
DEVILS ISLAND    0000   17     190/  7/  9 1026.7F
PORT WING        2340   18     190/  4/  6 1025.4F
SAXON HARBOR     2300   19     200/  2/  5 1026.1F
$$

LMZ867-665-643>646-310100-
LAKE MICHIGAN

STATION/POSITION TIME  TEMP    WIND        PRES    WAVE



USA.gov is the U.S. government's official web portal to all federal, state and local government web resources and services.